Westfield, MA

4:10 AM EST on November 23, 2017 (GMT -0500)
Barnes Municipal

Weather History for KBAF - April, 2013

Change the Weather History Date:

Thursday, April 18, 2013

  Actual Average Record
Temperature  
Mean Temperature 48 °F -  
Max Temperature 64 °F 59 °F 91 °F (2002)
Min Temperature 35 °F 36 °F 26 °F (2014)
Degree Days  
Heating Degree Days 16    
Moisture  
Dew Point 33 °F    
Average Humidity 53    
Maximum Humidity 85    
Minimum Humidity 26    
Precipitation  
Precipitation 0.00 in - - ()
Sea Level Pressure  
Sea Level Pressure 30.29 in    
Wind  
Wind Speed 6 mph (South)    
Max Wind Speed 18 mph    
Max Gust Speed 28 mph    
Visibility 10 miles    
Events      
Averages and records for this station are not official NWS values.
T = Trace of Precipitation, MM = Missing Value Source: NWS Daily Summary

Daily Weather History Graph

Daily Weather History Graph

Search for Another Location

Airport or City:

Trip Planner

Search our weather history database for the weather conditions in past years. The results will help you decide how hot, cold, wet, or windy it might be!

Date:

Astronomy

Apr. 18, 2013 Rise Set
Actual Time 6:05 AM EDT 7:35 PM EDT
Civil Twilight 5:35 AM EDT 8:05 PM EDT
Nautical Twilight 5:00 AM EDT 8:40 PM EDT
Astronomical Twilight 4:22 AM EDT 9:18 PM EDT
Moon 12:12 PM EDT (4/18) 1:50 AM EDT (4/18)
Length of Visible Light 14h 29m
Length of Day
13h 30m
First Quarter, 51% of the Moon is Illuminated
Apr 18
First Quarter
Apr 25
Full
May 2
Last Quarter
May 9
New
May 18
First Quarter

Hourly Weather History & Observations

Time (EDT) Temp. Windchill Dew Point Humidity Pressure Visibility Wind Dir Wind Speed Gust Speed Precip Events Conditions
12:53 AM 43.0 °F - 30.0 °F 60% 30.36 in 10.0 mi Calm Calm - N/A   Clear
1:53 AM 41.0 °F - 30.9 °F 67% 30.35 in 10.0 mi Calm Calm - N/A   Clear
2:53 AM 37.9 °F 35.5 °F 30.0 °F 73% 30.36 in 10.0 mi NNE 3.5 mph - N/A   Clear
3:53 AM 37.9 °F - 30.9 °F 76% 30.37 in 10.0 mi Calm Calm - N/A   Clear
4:53 AM 35.1 °F - 30.9 °F 85% 30.38 in 10.0 mi Calm Calm - N/A   Clear
5:53 AM 35.1 °F - 28.9 °F 78% 30.38 in 10.0 mi Calm Calm - N/A   Clear
6:53 AM 36.0 °F - 30.9 °F 82% 30.40 in 10.0 mi Calm Calm - N/A   Clear
7:53 AM 44.1 °F 38.6 °F 32.0 °F 63% 30.41 in 10.0 mi North 10.4 mph - N/A   Mostly Cloudy
8:53 AM 50.0 °F - 33.1 °F 52% 30.38 in 10.0 mi Calm Calm - N/A   Clear
9:53 AM 54.0 °F - 32.0 °F 43% 30.38 in 10.0 mi SSE 6.9 mph - N/A   Mostly Cloudy
10:53 AM 59.0 °F - 32.0 °F 36% 30.37 in 10.0 mi South 12.7 mph 16.1 mph N/A   Overcast
11:53 AM 60.1 °F - 30.0 °F 32% 30.35 in 10.0 mi South 11.5 mph 18.4 mph N/A   Overcast
12:53 PM 62.1 °F - 30.0 °F 30% 30.31 in 10.0 mi South 13.8 mph 18.4 mph N/A   Overcast
1:53 PM 62.1 °F - 27.0 °F 26% 30.30 in 10.0 mi South 16.1 mph 25.3 mph N/A   Overcast
2:53 PM 62.1 °F - 27.0 °F 26% 30.28 in 10.0 mi South 18.4 mph 27.6 mph N/A   Overcast
3:53 PM 61.0 °F - 28.0 °F 29% 30.26 in 10.0 mi South 16.1 mph 23.0 mph N/A   Overcast
4:53 PM 60.1 °F - 28.9 °F 31% 30.24 in 10.0 mi South 16.1 mph 24.2 mph N/A   Overcast
5:53 PM 57.9 °F - 27.0 °F 31% 30.23 in 10.0 mi South 12.7 mph 20.7 mph N/A   Overcast
6:53 PM 55.9 °F - 30.9 °F 39% 30.22 in 10.0 mi South 11.5 mph - N/A   Overcast
7:53 PM 54.0 °F - 36.0 °F 51% 30.21 in 10.0 mi South 15.0 mph - N/A   Overcast
8:25 PM 53.6 °F - 37.4 °F 54% 30.19 in 10.0 mi South 10.4 mph - N/A   Overcast
8:28 PM 53.6 °F - 37.4 °F 54% 30.19 in 10.0 mi South 11.5 mph - N/A   Overcast
8:53 PM 53.1 °F - 39.9 °F 61% 30.19 in 10.0 mi SSE 12.7 mph - N/A   Overcast
9:53 PM 53.1 °F - 42.1 °F 66% 30.18 in 10.0 mi South 10.4 mph - N/A   Overcast
10:53 PM 52.0 °F - 43.0 °F 71% 30.14 in 10.0 mi South 8.1 mph - N/A   Overcast
11:53 PM 52.0 °F - 44.1 °F 74% 30.13 in 10.0 mi South 10.4 mph - N/A   Overcast